Flag for Canada Weather past 2 weeks in St. Albert, Alberta, Canada

Now
55 °F

Scattered clouds.


Feels Like: 53 °F
Forecast: 40 / 56 °F
Wind: 9 mph from South

Location: Edmonton Municipal

Current Time: Mar 30, 2015 at 6:32:39 PM

Latest Report: Mar 30, 2015 at 6:00 PM


Visibility: 9 mi

Pressure: 29.86 "Hg

Humidity: 41%

Dew point: 32 °F

Location of St. AlbertLocation

Historic Weather in St. Albert — Graph

°F

St. Albert temperature yesterday

Maximum temperature yesterday: 61 °F (at 5:00 PM)
Minimum temperature yesterday: 30 °F (at 4:00 AM)
Average temperature yesterday: 44 °F

Past Weeks' High & Low Weather Summary

 TemperatureHumidityPressure
High61 °F (Mar 29, 5:00 PM)100% (Mar 22, 10:00 PM)30.51 "Hg (Mar 22, 10:00 PM)
Low10 °F (Mar 23, 1:48 AM)31% (Mar 29, 5:00 PM)29.54 "Hg (Mar 28, 4:00 AM)
Average34 °F71%30.05 "Hg
* Reported Mar 15 5:00 PM — Mar 30 5:00 PM, St. Albert, Weather by CustomWeather, © 2015

Note: Actual official high and low records may vary slightly from our data, if they occured in-between our weather recording intervals... More about our weather records

Advertising

St. Albert weather history for previous 24 hours

 ConditionsComfort  
Time TempWeatherWind HumidityBarometerVisibility
5:00 PM
Mon, Mar 30
55 °FPassing clouds.9 mph41%29.88 "Hg9 mi
4:00 PM55 °FPassing clouds.8 mph36%29.90 "Hg9 mi
3:00 PM54 °FSunny.5 mph33%29.93 "Hg9 mi
2:00 PM52 °FSunny.No wind32%29.96 "Hg9 mi
1:00 PM50 °FPassing clouds.7 mph40%29.97 "Hg9 mi
12:00 PM48 °FPassing clouds.7 mph43%30.00 "Hg9 mi
11:00 AM48 °FSunny.8 mph40%30.00 "Hg9 mi
10:00 AM45 °FSunny.9 mph46%29.99 "Hg9 mi
9:00 AM43 °FSunny.5 mph49%29.97 "Hg9 mi
8:00 AM37 °FClear.5 mph60%30.00 "Hg9 mi
7:00 AM36 °FClear.3 mph60%29.98 "Hg9 mi
6:00 AM36 °FClear.7 mph65%29.97 "Hg9 mi
5:00 AM39 °FClear.6 mph56%29.96 "Hg9 mi
4:00 AM41 °FPassing clouds.7 mph57%29.95 "Hg9 mi
3:00 AM43 °FClear.12 mph53%29.94 "Hg9 mi
2:00 AM43 °FClear.9 mph57%29.93 "Hg9 mi
1:00 AM45 °FClear.12 mph61%29.91 "Hg9 mi
12:00 AM43 °FClear.9 mph66%29.89 "Hg9 mi
11:00 PM
Sun, Mar 29
45 °FPassing clouds.8 mph66%29.88 "Hg9 mi
10:00 PM45 °FPassing clouds.10 mph71%29.87 "Hg9 mi
9:00 PM48 °FPassing clouds.13 mph58%29.84 "Hg9 mi
8:03 PM50 °FMostly cloudy.8 mph58%29.78 "Hg9 mi
7:00 PM55 °FPassing clouds.3 mph41%29.78 "Hg9 mi
6:00 PM57 °FScattered clouds.7 mph41%29.78 "Hg9 mi
Weather by CustomWeather, © 2015

See weather overviewHow to use our weather pages